EXPRESS-AM8

Last updated on Thu Sep 10 2026 00:02:58 GMT+0000 (Coordinated Universal Time)

1 40895U 15048A 26252.36899983 -.00000133 00000+0 00000+0 0 9992 2 40895 0.0224 249.6129 0000062 68.5573 149.0895 1.00272523 40193
UTC large
Height (km)
Speed (km/s)
/
Latitude / Longitude
Inclination (degrees)
Orbital Period (minutes)
Azimuth
Elevation
Range (km)
Doppler Factor

Next 0 passes for location: London (51.5072 / 0.1276)

No passes found over London.
EXPRESS-AM8